Ocean City, MD

2:36 AM EDT on September 23, 2017 (GMT -0400)
Ocean City Municipal

Weather History for KOXB - January, 2013

Change the Weather History Date:

Tuesday, January 15, 2013

  Actual Average (KSBY) Record (KSBY)
Temperature  
Mean Temperature 42 °F -  
Max Temperature 44 °F 40 °F 75 °F (1932)
Min Temperature 39 °F 25 °F 4 °F (1982)
Degree Days  
Heating Degree Days 24    
Moisture  
Dew Point 42 °F    
Average Humidity 97    
Maximum Humidity 100    
Minimum Humidity 92    
Precipitation  
Precipitation 0.69 in - - ()
Sea Level Pressure  
Sea Level Pressure 30.24 in    
Wind  
Wind Speed 10 mph (NE)    
Max Wind Speed 15 mph    
Max Gust Speed 23 mph    
Visibility 6 miles    
Events Rain    
Averages and records for this station are not official NWS values.
T = Trace of Precipitation, MM = Missing Value Source: NWS Daily Summary

Daily Weather History Graph

Daily Weather History Graph

Search for Another Location

Airport or City:

Trip Planner

Search our weather history database for the weather conditions in past years. The results will help you decide how hot, cold, wet, or windy it might be!

Date:

Astronomy

Jan. 15, 2013 Rise Set
Actual Time 7:15 AM EST 5:04 PM EST
Civil Twilight 6:47 AM EST 5:33 PM EST
Nautical Twilight 6:14 AM EST 6:05 PM EST
Astronomical Twilight 5:42 AM EST 6:37 PM EST
Moon 9:24 AM EST (1/15) 9:46 PM EST (1/15)
Length of Visible Light 10h 46m
Length of Day
9h 48m
Waxing Crescent, 19% of the Moon is Illuminated
Jan 15
Waxing Crescent
Jan 18
First Quarter
Jan 26
Full
Feb 3
Last Quarter
Feb 10
New

Hourly Weather History & Observations

Time (EST) Temp. Windchill Dew Point Humidity Pressure Visibility Wind Dir Wind Speed Gust Speed Precip Events Conditions
12:05 AM 44.6 °F 38.8 °F 44.6 °F 100% 30.23 in 3.0 mi North 11.5 mph - 0.03 in Rain Rain
12:11 AM 44.6 °F 39.7 °F 44.6 °F 100% 30.23 in 2.5 mi North 9.2 mph - 0.06 in Rain Rain
12:24 AM 44.6 °F 39.7 °F 44.6 °F 100% 30.23 in 3.0 mi North 9.2 mph 18.4 mph 0.09 in Rain Rain
12:53 AM 44.1 °F 38.6 °F 44.1 °F 100% 30.24 in 4.0 mi North 10.4 mph - 0.14 in Rain Light Rain
1:02 AM 44.6 °F 39.2 °F 44.6 °F 100% 30.24 in 4.0 mi North 10.4 mph - 0.01 in Rain Light Rain
1:53 AM 43.0 °F 36.0 °F 43.0 °F 100% 30.24 in 3.0 mi NE 13.8 mph 20.7 mph 0.07 in Rain Light Rain
2:10 AM 42.8 °F 35.8 °F 42.8 °F 100% 30.26 in 7.0 mi NE 13.8 mph 23.0 mph 0.00 in   Overcast
2:53 AM 42.1 °F 36.1 °F 42.1 °F 100% 30.26 in 8.0 mi NNE 10.4 mph 18.4 mph 0.01 in   Overcast
3:29 AM 42.8 °F 37.0 °F 42.8 °F 100% 30.25 in 3.0 mi NE 10.4 mph - 0.02 in Rain Light Rain
3:53 AM 42.1 °F 36.6 °F 42.1 °F 100% 30.23 in 3.0 mi ENE 9.2 mph - 0.04 in Rain Light Rain
4:53 AM 43.0 °F 37.7 °F 43.0 °F 100% 30.20 in 6.0 mi East 9.2 mph - 0.03 in   Overcast
5:53 AM 44.1 °F 40.8 °F 44.1 °F 100% 30.19 in 10.0 mi East 5.8 mph - 0.00 in   Overcast
7:48 AM 44.6 °F 38.8 °F 44.6 °F 100% 30.25 in 2.0 mi NE 11.5 mph - 0.01 in Rain Light Rain
7:53 AM 44.1 °F 38.6 °F 43.0 °F 96% 30.26 in 2.5 mi NNE 10.4 mph - 0.01 in   Overcast
8:53 AM 42.1 °F 36.1 °F 41.0 °F 96% 30.28 in 3.0 mi NNE 10.4 mph - 0.01 in   Overcast
9:01 AM 42.8 °F 36.6 °F 41.0 °F 93% 30.28 in 2.0 mi North 11.5 mph - 0.00 in Rain Light Rain
9:39 AM 42.8 °F 37.0 °F 41.0 °F 93% 30.30 in 4.0 mi North 10.4 mph - 0.00 in   Overcast
9:53 AM 42.1 °F 34.5 °F 41.0 °F 96% 30.30 in 10.0 mi NNE 15.0 mph 20.7 mph 0.00 in   Overcast
10:53 AM 42.1 °F 35.2 °F 39.9 °F 92% 30.28 in 7.0 mi NNE 12.7 mph - 0.00 in   Overcast
11:53 AM 42.1 °F 36.1 °F 41.0 °F 96% 30.25 in 10.0 mi NE 10.4 mph 19.6 mph 0.01 in   Overcast
12:53 PM 41.0 °F 35.2 °F 39.9 °F 96% 30.25 in 7.0 mi NE 9.2 mph - 0.02 in Rain Light Rain
1:53 PM 41.0 °F 33.9 °F 39.9 °F 96% 30.26 in 9.0 mi North 12.7 mph 16.1 mph 0.02 in Rain Light Rain
2:53 PM 39.9 °F 32.5 °F 39.0 °F 97% 30.25 in 7.0 mi NE 12.7 mph - 0.02 in Rain Light Rain
4:53 PM 41.0 °F 35.2 °F 39.9 °F 96% 30.26 in 9.0 mi NNE 9.2 mph - 0.01 in Rain Light Rain
5:27 PM 39.2 °F 32.5 °F 39.2 °F 100% 30.24 in 8.0 mi NE 10.4 mph - 0.03 in Rain Light Rain
5:53 PM 39.9 °F 33.9 °F 39.0 °F 97% 30.25 in 7.0 mi NE 9.2 mph - 0.05 in Rain Light Rain
6:14 PM 41.0 °F 35.2 °F 39.2 °F 93% 30.23 in 10.0 mi NE 9.2 mph - 0.00 in Rain Light Rain
6:21 PM 41.0 °F 35.2 °F 39.2 °F 93% 30.23 in 10.0 mi NE 9.2 mph - 0.00 in   Overcast
6:53 PM 41.0 °F 36.4 °F 41.0 °F 100% 30.24 in 9.0 mi ENE 6.9 mph - 0.01 in Rain Light Rain
7:17 PM 42.8 °F 38.0 °F 41.0 °F 93% 30.22 in 7.0 mi NE 8.1 mph - 0.02 in Rain Light Rain
7:53 PM 42.1 °F 37.1 °F 41.0 °F 96% 30.21 in 7.0 mi NE 8.1 mph - 0.04 in Rain Light Rain
8:53 PM 41.0 °F 35.8 °F 41.0 °F 100% 30.21 in 7.0 mi NE 8.1 mph - 0.05 in Rain Light Rain
9:53 PM 41.0 °F 35.2 °F 39.9 °F 96% 30.19 in 4.0 mi NE 9.2 mph - 0.07 in Rain Light Rain
10:53 PM 41.0 °F 35.2 °F 39.9 °F 96% 30.17 in 9.0 mi NE 9.2 mph 17.3 mph 0.02 in   Overcast
11:53 PM 41.0 °F 35.8 °F 39.9 °F 96% 30.13 in 3.0 mi NE 8.1 mph - 0.06 in Rain Light Rain